Content
SEND FEEDBACK

Daily
Averages
Monthly
Summary
Indonesia

HASANUDIN, INDONESIA


Home > Asia > Indonesia
Elevation: 46 feet     Latitude: 05 04S     Longitude: 119 33E

WEATHER
 
SELECT A DAY
Number of Records: 196,653;   Date Range: 9/17/97 - 9/22/14
 
SHARE

PRINT THIS DATA

[ ← Previous Day ]
WEATHER ALMANAC - FEBRUARY 4, 2013
[ Next Day → ]
[ °C ]   °F
Weather ElementAverageHighLow
Temperature82.7 °F90 °F (11:00 am)75.2 °F (3:30 am)
Dewpoint78.1 °F81 °F (5:00 pm)75.2 °F (3:30 am)
Humidity86.9 %100 % (12:30 am)62 % (10:00 am)
Barometer29.83 in29.89 in (10:00 pm)29.77 in (2:00 pm)
Wind Speed4.6 mph11.5 mph (4:00 pm)
Weather ElementAverage
Visibility5.4 mi
Wind DirectionSE (140.4 °)

Weather ElementTotal
Precipitation---
Cooling Degree Days17.6 (Base 65)
Growing Degree Days32.6 (Base 50)
Averaged from 53 records on February 4, 2013
WEATHER CONDITIONS BREAKOUT
WIND DIRECTION BREAKOUT
WEATHER BY HOUR - FEBRUARY 4, 2013
[ °C ]   °F
Local TimeTemperatureDewpointHumidityBarometerVisibilityWind DirectionWind SpeedGust SpeedPrecipitationEventsConditions
12:30 AM77.0 °F77.0 °F100 %29.86 in5.0 miESE (110°)3.5 mphPartly Cloudy
1:00 AM77.0 °F77.0 °F100 %29.83 in5.0 miVariable1.2 mphPartly Cloudy
1:30 AM77.0 °F77.0 °F100 %29.83 in5.0 miESE (110°)3.5 mphPartly Cloudy
2:00 AM77.0 °F77.0 °F98 %29.84 in5.0 miESE (110°)2.3 mphScattered Clouds
2:00 AM77.0 °F77.0 °F100 %29.83 in5.0 miESE (120°)3.5 mphPartly Cloudy
2:30 AM77.0 °F77.0 °F100 %29.83 in5.0 miSE (130°)2.3 mphPartly Cloudy
3:00 AM77.0 °F77.0 °F100 %29.83 in5.0 miSouth (170°)3.5 mphPartly Cloudy
3:30 AM75.2 °F75.2 °F100 %29.83 in5.0 miSouth (190°)3.5 mphPartly Cloudy
4:00 AM77.0 °F77.0 °F100 %29.83 in5.0 miVariable2.3 mphPartly Cloudy
4:30 AM75.2 °F75.2 °F100 %29.83 in5.0 miVariable1.2 mphPartly Cloudy
5:00 AM76.0 °F76.0 °F99 %29.84 in5.0 miSSE (160°)2.3 mphScattered Clouds
5:00 AM75.2 °F75.2 °F100 %29.83 in5.0 miSouth (190°)2.3 mphPartly Cloudy
5:30 AM77.0 °F77.0 °F100 %29.83 in5.0 miVariable2.3 mphPartly Cloudy
6:00 AM75.2 °F75.2 °F100 %29.83 in5.0 miVariable1.2 mphPartly Cloudy
6:30 AM75.2 °F75.2 °F100 %29.86 in5.0 miVariable1.2 mphPartly Cloudy
7:00 AM77.0 °F77.0 °F100 %29.86 in5.6 miNE (50°)3.5 mphPartly Cloudy
7:30 AM78.8 °F78.8 °F100 %29.86 in5.6 miVariable2.3 mphPartly Cloudy
8:00 AM81.0 °F78.0 °F88 %29.87 in6.0 miSE (130°)2.3 mphScattered Clouds
8:00 AM80.6 °F78.8 °F94 %29.86 in6.2 miVariable2.3 mphPartly Cloudy
8:30 AM84.2 °F78.8 °F84 %29.86 in6.2 miVariable2.3 mphPartly Cloudy
9:00 AM86.0 °F75.2 °F70 %29.86 in6.2 miVariable1.2 mphPartly Cloudy
9:30 AM87.8 °F77.0 °F70 %29.86 in6.2 miVariable2.3 mphPartly Cloudy
10:00 AM89.6 °F75.2 °F62 %29.86 in6.2 miVariable2.3 mphPartly Cloudy
10:30 AM89.6 °F75.2 °F62 %29.86 in6.2 miVariable4.6 mphPartly Cloudy
11:00 AM90.0 °F79.0 °F64 %29.86 in6.0 miNW (310°)5.8 mphScattered Clouds
11:00 AM89.6 °F78.8 °F70 %29.86 in6.2 miVariable3.5 mphPartly Cloudy
11:30 AM89.6 °F78.8 °F70 %29.83 in6.2 miWest (280°)5.8 mphPartly Cloudy
12:00 PM89.6 °F77.0 °F66 %29.83 in6.2 miNW (310°)9.2 mphPartly Cloudy
12:30 PM89.6 °F77.0 °F66 %29.83 in6.2 miNW (320°)9.2 mphPartly Cloudy
1:00 PM89.6 °F77.0 °F66 %29.80 in6.2 miNW (310°)9.2 mphPartly Cloudy
1:30 PM89.6 °F77.0 °F66 %29.80 in6.2 miWNW (300°)9.2 mphPartly Cloudy
2:00 PM89.0 °F79.0 °F66 %29.79 in6.0 miWNW (290°)8.1 mphScattered Clouds
2:00 PM89.6 °F78.8 °F70 %29.77 in6.2 miNW (320°)9.2 mphPartly Cloudy
2:30 PM89.6 °F77.0 °F66 %29.77 in6.2 miWest (280°)8.1 mphPartly Cloudy
3:00 PM89.6 °F78.8 °F70 %29.77 in6.2 miWNW (300°)8.1 mphPartly Cloudy
3:30 PM89.6 °F80.6 °F75 %29.77 in6.2 miWest (280°)9.2 mphPartly Cloudy
4:00 PM89.6 °F75.2 °F62 %29.77 in6.2 miWest (280°)11.5 mphPartly Cloudy
4:30 PM89.6 °F80.6 °F75 %29.77 in6.2 miWest (280°)6.9 mphScattered Clouds
5:00 PM88.0 °F81.0 °F75 %29.78 in6.0 miNW (310°)8.1 mphPartly Cloudy
5:00 PM87.8 °F80.6 °F79 %29.77 in6.2 miNNW (330°)10.4 mphScattered Clouds
5:30 PM87.8 °F80.6 °F79 %29.77 in5.6 miNW (310°)6.9 mphScattered Clouds
7:00 PM80.6 °F80.6 °F100 %29.80 in4.3 miWSW (240°)10.4 mphThunderstormThunderstorm
7:30 PM80.6 °F78.8 °F94 %29.83 in4.3 miSouth (180°)5.8 mphScattered Clouds
8:00 PM80.0 °F80.0 °F99 %29.85 in4.0 miSouth (180°)3.5 mphPartly Cloudy
8:00 PM80.6 °F80.6 °F100 %29.83 in4.3 miVariable2.3 mphPartly Cloudy
8:30 PM80.6 °F80.6 °F100 %29.86 in4.3 miSE (140°)4.6 mphPartly Cloudy
9:00 PM80.6 °F80.6 °F100 %29.86 in4.3 miSE (140°)3.5 mphPartly Cloudy
9:30 PM80.6 °F80.6 °F100 %29.86 in4.3 miVariable1.2 mphPartly Cloudy
10:00 PM80.6 °F80.6 °F100 %29.89 in4.3 miVariable1.2 mphPartly Cloudy
10:30 PM80.6 °F80.6 °F100 %29.89 in4.3 miEast (80°)3.5 mphPartly Cloudy
11:00 PM80.0 °F80.0 °F100 %29.89 in5.0 miESE (120°)2.3 mphScattered Clouds
11:00 PM80.6 °F80.6 °F100 %29.89 in5.0 miEast (80°)3.5 mphPartly Cloudy
11:30 PM78.8 °F78.8 °F100 %29.89 in5.0 miVariable2.3 mphPartly Cloudy
Hourly data recorded from WAAA, located miles away from Hasanudin, Indonesia







STORIES FROM OUR PARTNERS